TimeMST,TemperatureF,Dew PointF,Humidity,Sea Level PressureIn,VisibilityMPH,Wind Direction,Wind SpeedMPH,Gust SpeedMPH,PrecipitationIn,Events,Conditions,WindDirDegrees,DateUTC
12:53 AM,19.9,9.0,62,30.02,10.0,West,4.6,-,N/A,,Clear,270,2013-01-07 07:53:00
1:53 AM,19.0,7.0,59,30.04,10.0,WSW,3.5,-,N/A,,Clear,240,2013-01-07 08:53:00
2:53 AM,15.1,6.1,68,30.05,10.0,WNW,4.6,-,N/A,,Clear,300,2013-01-07 09:53:00
3:53 AM,6.1,1.0,80,30.13,8.0,SSW,6.9,-,N/A,,Clear,200,2013-01-07 10:53:00
4:53 AM,6.1,-0.0,76,30.16,8.0,SSW,5.8,-,N/A,,Clear,210,2013-01-07 11:53:00
5:53 AM,8.1,1.0,73,30.17,10.0,Calm,Calm,-,N/A,,Clear,0,2013-01-07 12:53:00
6:53 AM,6.1,-0.0,76,30.24,10.0,SE,4.6,-,N/A,,Clear,130,2013-01-07 13:53:00
7:53 AM,5.0,-0.9,76,30.26,9.0,East,4.6,-,N/A,,Clear,100,2013-01-07 14:53:00
8:53 AM,9.0,1.0,70,30.30,7.0,East,3.5,-,N/A,,Clear,80,2013-01-07 15:53:00
9:53 AM,10.9,1.9,67,30.29,8.0,NW,4.6,-,N/A,,Clear,310,2013-01-07 16:53:00
10:53 AM,18.0,6.1,60,30.29,9.0,ENE,4.6,-,N/A,,Clear,60,2013-01-07 17:53:00
11:53 AM,21.9,8.1,55,30.27,10.0,East,5.8,-,N/A,,Clear,90,2013-01-07 18:53:00
12:53 PM,27.0,10.0,49,30.20,10.0,NW,6.9,-,N/A,,Clear,310,2013-01-07 19:53:00
1:53 PM,26.1,9.0,49,30.18,10.0,Calm,Calm,-,N/A,,Clear,0,2013-01-07 20:53:00
2:53 PM,28.9,9.0,43,30.18,10.0,Calm,Calm,-,N/A,,Clear,0,2013-01-07 21:53:00
3:53 PM,28.0,10.9,49,30.22,10.0,ENE,3.5,-,N/A,,Clear,70,2013-01-07 22:53:00
4:53 PM,25.0,10.0,53,30.25,10.0,Calm,Calm,-,N/A,,Clear,0,2013-01-07 23:53:00
5:53 PM,21.0,10.0,63,30.27,10.0,Calm,Calm,-,N/A,,Clear,0,2013-01-08 00:53:00
6:53 PM,17.1,8.1,68,30.28,10.0,West,3.5,-,N/A,,Clear,280,2013-01-08 01:53:00
7:53 PM,14.0,7.0,74,30.29,10.0,Calm,Calm,-,N/A,,Clear,0,2013-01-08 02:53:00
8:53 PM,15.1,8.1,74,30.31,10.0,SSE,3.5,-,N/A,,Clear,160,2013-01-08 03:53:00
9:53 PM,10.0,3.9,76,30.30,10.0,WSW,3.5,-,N/A,,Clear,250,2013-01-08 04:53:00
10:53 PM,12.0,6.1,77,30.29,10.0,NE,4.6,-,N/A,,Clear,40,2013-01-08 05:53:00
11:53 PM,14.0,6.1,71,30.24,10.0,Calm,Calm,-,N/A,,Clear,0,2013-01-08 06:53:00